When you browse on this site, cookies collect data to enhance your experience and personalize the content and advertising you see.
Visit our Privacy Policy to learn more. By continuing to use the site, you agree to this use of cookies and data.
  • In Czech Republic
  • List of Countries
  • For 7 days
  • Water Temperature
  • Weather Map
  • Weather Widgets
  • user-avatar
    Login

    Hourly Weather Dagda

    Today, 27 May, Wednesday

    Time Temperature Precipitation Wind Pressure Humidity
    00:00 +9°C° 0 mm 1 mps 755 mmHg 72%
    01:00 +8°C° 0 mm 2 mps 755 mmHg 74%
    02:00 +7°C° 0 mm 2 mps 754 mmHg 76%
    03:00 +8°C° 0 mm 2 mps 754 mmHg 76%
    04:00 +8°C° 0 mm 2 mps 754 mmHg 77%
    05:00 +8°C° 0 mm 2 mps 754 mmHg 77%
    06:00 +10°C° 0 mm 2 mps 754 mmHg 71%
    07:00 +13°C° 0 mm 2 mps 754 mmHg 64%
    08:00 +15°C° 0 mm 2 mps 754 mmHg 58%
    09:00 +17°C° 0 mm 2 mps 754 mmHg 52%
    10:00 +18°C° 0 mm 2 mps 753 mmHg 46%
    11:00 +20°C° 0 mm 2 mps 753 mmHg 40%
    12:00 +20°C° 0 mm 2 mps 753 mmHg 40%
    13:00 +20°C° 0 mm 2 mps 753 mmHg 39%
    14:00 +20°C° 0 mm 2 mps 752 mmHg 38%
    15:00 +20°C° 0 mm 2 mps 752 mmHg 40%
    16:00 +20°C° 0 mm 2 mps 752 mmHg 41%
    17:00 +21°C° 0 mm 1 mps 751 mmHg 43%
    18:00 +19°C° 0 mm 1 mps 751 mmHg 51%
    19:00 +16°C° 0 mm 1 mps 751 mmHg 60%
    20:00 +14°C° 0 mm 1 mps 751 mmHg 69%
    21:00 +13°C° 0 mm 1 mps 751 mmHg 72%
    22:00 +12°C° 0 mm 1 mps 751 mmHg 75%
    23:00 +12°C° 0 mm 1 mps 751 mmHg 78%

    Tomorrow, 28 May, Thursday

    Time Temperature Precipitation Wind Pressure Humidity
    00:00 +11°C° 0 mm 1 mps 751 mmHg 79%
    01:00 +11°C° 0 mm 1 mps 751 mmHg 80%
    02:00 +10°C° 0 mm 1 mps 751 mmHg 81%
    03:00 +10°C° 0 mm 1 mps 750 mmHg 80%
    04:00 +10°C° 0 mm 1 mps 750 mmHg 80%
    05:00 +10°C° 0 mm 1 mps 750 mmHg 80%
    06:00 +12°C° 0 mm 1 mps 750 mmHg 73%
    07:00 +14°C° 0 mm 1 mps 750 mmHg 65%
    08:00 +16°C° 0 mm 1 mps 750 mmHg 58%
    09:00 +19°C° 0 mm 1 mps 750 mmHg 53%
    10:00 +20°C° 0 mm 1 mps 750 mmHg 48%
    11:00 +22°C° 0 mm 1 mps 750 mmHg 44%
    12:00 +21°C° 0 mm 1 mps 750 mmHg 45%
    13:00 +21°C° 0 mm 1 mps 750 mmHg 47%
    14:00 +20°C° 0 mm 1 mps 750 mmHg 48%
    15:00 +20°C° 0 mm 1 mps 750 mmHg 51%
    16:00 +20°C° 0 mm 1 mps 749 mmHg 53%
    17:00 +19°C° 0 mm 2 mps 749 mmHg 55%
    18:00 +17°C° 0 mm 2 mps 749 mmHg 63%
    19:00 +15°C° 0 mm 2 mps 749 mmHg 71%
    20:00 +14°C° 0 mm 2 mps 749 mmHg 79%
    21:00 +13°C° 0 mm 2 mps 749 mmHg 82%
    22:00 +11°C° 0 mm 3 mps 749 mmHg 85%
    23:00 +10°C° 0 mm 3 mps 750 mmHg 88%

    Day after tomorrow, 29 May, Friday

    Time Temperature Precipitation Wind Pressure Humidity
    00:00 +10°C° 0 mm 3 mps 749 mmHg 88%
    01:00 +9°C° 0 mm 3 mps 749 mmHg 89%
    02:00 +9°C° 0 mm 3 mps 749 mmHg 90%
    03:00 +8°C° 0 mm 4 mps 749 mmHg 89%
    04:00 +8°C° 0 mm 4 mps 748 mmHg 88%
    05:00 +8°C° 0 mm 5 mps 748 mmHg 87%
    06:00 +10°C° 0 mm 5 mps 748 mmHg 81%
    07:00 +11°C° 0 mm 6 mps 748 mmHg 75%
    08:00 +13°C° 0 mm 6 mps 747 mmHg 69%
    09:00 +14°C° 0.1 mm 6 mps 747 mmHg 67%
    10:00 +15°C° 0.1 mm 6 mps 747 mmHg 66%
    11:00 +15°C° 0.1 mm 6 mps 746 mmHg 65%
    12:00 +15°C° 0.6 mm 5 mps 746 mmHg 70%
    13:00 +14°C° 0.6 mm 5 mps 746 mmHg 76%
    14:00 +14°C° 0.6 mm 4 mps 745 mmHg 82%
    15:00 +14°C° 0.4 mm 4 mps 745 mmHg 81%
    16:00 +14°C° 0.4 mm 5 mps 745 mmHg 81%
    17:00 +14°C° 0.4 mm 5 mps 745 mmHg 80%
    18:00 +14°C° 0 mm 5 mps 745 mmHg 79%
    19:00 +14°C° 0 mm 5 mps 744 mmHg 77%
    20:00 +14°C° 0 mm 5 mps 744 mmHg 76%
    21:00 +14°C° 0 mm 5 mps 744 mmHg 78%
    22:00 +14°C° 0 mm 5 mps 744 mmHg 81%
    23:00 +14°C° 0 mm 6 mps 744 mmHg 83%

    30 May, Saturday

    Time Temperature Precipitation Wind Pressure Humidity
    00:00 +13°C° 0.1 mm 6 mps 744 mmHg 85%
    01:00 +13°C° 0.1 mm 6 mps 744 mmHg 87%
    02:00 +13°C° 0.1 mm 6 mps 744 mmHg 89%
    03:00 +12°C° 0.1 mm 5 mps 744 mmHg 90%
    04:00 +12°C° 0.1 mm 5 mps 744 mmHg 91%
    05:00 +12°C° 0.1 mm 5 mps 744 mmHg 91%
    06:00 +12°C° 0.1 mm 5 mps 744 mmHg 91%
    07:00 +13°C° 0.1 mm 5 mps 744 mmHg 91%
    08:00 +13°C° 0.1 mm 5 mps 745 mmHg 90%
    09:00 +14°C° 0.1 mm 5 mps 745 mmHg 90%
    10:00 +14°C° 0.1 mm 5 mps 745 mmHg 90%
    11:00 +15°C° 0.1 mm 5 mps 745 mmHg 90%
    12:00 +15°C° 0.1 mm 5 mps 745 mmHg 90%
    13:00 +15°C° 0.1 mm 5 mps 745 mmHg 89%
    14:00 +14°C° 0.1 mm 6 mps 745 mmHg 89%
    15:00 +14°C° 0.8 mm 6 mps 745 mmHg 91%
    16:00 +14°C° 0.8 mm 6 mps 745 mmHg 94%
    17:00 +13°C° 0.8 mm 6 mps 745 mmHg 96%
    18:00 +13°C° 0.1 mm 6 mps 745 mmHg 95%
    19:00 +14°C° 0.1 mm 6 mps 744 mmHg 95%
    20:00 +14°C° 0.1 mm 6 mps 744 mmHg 94%
    21:00 +14°C° 0 mm 5 mps 745 mmHg 93%
    22:00 +14°C° 0 mm 5 mps 745 mmHg 92%
    23:00 +14°C° 0 mm 5 mps 745 mmHg 91%

    31 May, Sunday

    Time Temperature Precipitation Wind Pressure Humidity
    00:00 +14°C° 0 mm 5 mps 745 mmHg 89%
    01:00 +13°C° 0 mm 5 mps 745 mmHg 88%
    02:00 +13°C° 0 mm 5 mps 745 mmHg 86%
    03:00 +13°C° 0 mm 5 mps 745 mmHg 84%
    04:00 +13°C° 0 mm 5 mps 745 mmHg 82%
    05:00 +12°C° 0 mm 5 mps 745 mmHg 80%
    06:00 +13°C° 0 mm 6 mps 746 mmHg 76%
    07:00 +14°C° 0 mm 6 mps 746 mmHg 72%
    08:00 +15°C° 0 mm 6 mps 746 mmHg 68%
    09:00 +17°C° 0 mm 6 mps 746 mmHg 63%
    10:00 +18°C° 0 mm 7 mps 746 mmHg 59%
    11:00 +21°C° 0 mm 7 mps 746 mmHg 54%
    12:00 +21°C° 0 mm 7 mps 747 mmHg 50%
    13:00 +21°C° 0 mm 7 mps 747 mmHg 46%
    14:00 +22°C° 0 mm 7 mps 747 mmHg 42%
    15:00 +21°C° 0 mm 6 mps 747 mmHg 44%
    16:00 +21°C° 0 mm 6 mps 747 mmHg 46%
    17:00 +20°C° 0 mm 6 mps 747 mmHg 48%
    18:00 +19°C° 0 mm 6 mps 747 mmHg 52%
    19:00 +16°C° 0 mm 5 mps 748 mmHg 57%
    20:00 +14°C° 0 mm 5 mps 748 mmHg 61%
    21:00 +13°C° 0 mm 5 mps 748 mmHg 60%
    22:00 +12°C° 0 mm 4 mps 749 mmHg 59%
    23:00 +11°C° 0 mm 4 mps 750 mmHg 58%

    1 June, Monday

    Time Temperature Precipitation Wind Pressure Humidity
    00:00 +10°C° 0 mm 4 mps 750 mmHg 61%
    01:00 +8°C° 0 mm 4 mps 750 mmHg 64%
    02:00 +8°C° 0 mm 3 mps 751 mmHg 67%
    03:00 +8°C° 0 mm 3 mps 751 mmHg 69%
    04:00 +8°C° 0 mm 3 mps 751 mmHg 70%
    05:00 +7°C° 0 mm 3 mps 751 mmHg 71%
    06:00 +8°C° 0 mm 4 mps 751 mmHg 67%
    07:00 +10°C° 0 mm 4 mps 752 mmHg 62%
    08:00 +12°C° 0 mm 4 mps 752 mmHg 57%
    09:00 +13°C° 0 mm 4 mps 752 mmHg 52%
    10:00 +14°C° 0 mm 4 mps 752 mmHg 47%
    11:00 +15°C° 0 mm 5 mps 752 mmHg 41%
    12:00 +16°C° 0 mm 5 mps 752 mmHg 40%
    13:00 +16°C° 0 mm 5 mps 751 mmHg 39%
    14:00 +17°C° 0 mm 5 mps 751 mmHg 38%
    15:00 +16°C° 0 mm 5 mps 751 mmHg 40%
    16:00 +16°C° 0 mm 5 mps 751 mmHg 41%
    17:00 +17°C° 0 mm 4 mps 751 mmHg 43%
    18:00 +14°C° 0 mm 4 mps 751 mmHg 50%
    19:00 +13°C° 0 mm 3 mps 751 mmHg 57%
    20:00 +12°C° 0 mm 2 mps 751 mmHg 65%
    21:00 +10°C° 0 mm 2 mps 751 mmHg 67%
    22:00 +9°C° 0 mm 2 mps 752 mmHg 69%
    23:00 +7°C° 0 mm 2 mps 752 mmHg 71%
    Show more